Shelton, WA

1:45 AM PDT on April 28, 2017 (GMT -0700)
Sanderson

Weather History for KSHN - May, 2013

Change the Weather History Date:

Thursday, May 2, 2013

  Actual Average Record
Temperature  
Mean Temperature 50 °F -  
Max Temperature 70 °F 64 °F 86 °F (2016)
Min Temperature 32 °F 43 °F 28 °F (2006)
Degree Days  
Heating Degree Days 14    
Moisture  
Dew Point 35 °F    
Average Humidity 58    
Maximum Humidity 96    
Minimum Humidity 26    
Precipitation  
Precipitation 0.00 in - - ()
Sea Level Pressure  
Sea Level Pressure 30.43 in    
Wind  
Wind Speed 2 mph (NNE)    
Max Wind Speed 9 mph    
Max Gust Speed -    
Visibility 10 miles    
Events      
Averages and records for this station are not official NWS values.
T = Trace of Precipitation, MM = Missing Value Source: NWS Daily Summary

Daily Weather History Graph

Daily Weather History Graph

Search for Another Location

Airport or City:

Trip Planner

Search our weather history database for the weather conditions in past years. The results will help you decide how hot, cold, wet, or windy it might be!

Date:

Astronomy

May. 02, 2013 Rise Set
Actual Time 5:54 AM PDT 8:25 PM PDT
Civil Twilight 5:20 AM PDT 9:00 PM PDT
Nautical Twilight 4:36 AM PDT 9:43 PM PDT
Astronomical Twilight 3:47 AM PDT 10:33 PM PDT
Moon 2:14 AM PDT (5/2) 12:53 PM PDT (5/2)
Length of Visible Light 15h 40m
Length of Day
14h 31m
Waning Gibbous, 46% of the Moon is Illuminated
May 2
Waning Gibbous
May 9
New
May 17
First Quarter
May 24
Full
May 31
Last Quarter

Hourly Weather History & Observations

Time (PDT) Temp. Windchill Dew Point Humidity Pressure Visibility Wind Dir Wind Speed Gust Speed Precip Events Conditions
12:53 AM 39.0 °F - 35.1 °F 86% 30.53 in 10.0 mi Calm Calm - N/A   Clear
1:53 AM 37.9 °F - 35.1 °F 89% 30.53 in 10.0 mi Calm Calm - N/A   Clear
2:53 AM 36.0 °F - 34.0 °F 93% 30.52 in 10.0 mi Calm Calm - N/A   Clear
3:53 AM 34.0 °F 31.0 °F 33.1 °F 96% 30.52 in 10.0 mi NW 3.5 mph - N/A   Clear
4:53 AM 33.1 °F - 30.9 °F 92% 30.51 in 10.0 mi Calm Calm - N/A   Clear
5:53 AM 32.0 °F - 30.0 °F 92% 30.50 in 10.0 mi Calm Calm - N/A   Clear
6:53 AM 34.0 °F - 33.1 °F 96% 30.49 in 10.0 mi Calm Calm - N/A   Clear
7:53 AM 45.0 °F - 39.9 °F 82% 30.49 in 10.0 mi Calm Calm - N/A   Clear
8:53 AM 51.1 °F - 34.0 °F 52% 30.48 in 10.0 mi Calm Calm - N/A   Clear
9:53 AM 55.9 °F - 37.0 °F 49% 30.46 in 10.0 mi Calm Calm - N/A   Clear
10:53 AM 61.0 °F - 39.0 °F 44% 30.44 in 10.0 mi Variable 4.6 mph - N/A   Clear
11:53 AM 64.4 °F - 39.2 °F 40% 30.42 in 10.0 mi ESE 3.5 mph - N/A   Clear
12:53 PM 66.9 °F - 39.9 °F 37% 30.40 in 10.0 mi SSE 5.8 mph - N/A   Clear
1:53 PM 69.1 °F - 39.0 °F 33% 30.39 in 10.0 mi North 6.9 mph - N/A   Clear
2:53 PM 68.0 °F - 37.9 °F 33% 30.38 in 10.0 mi NNW 8.1 mph - N/A   Clear
3:53 PM 68.0 °F - 37.0 °F 32% 30.37 in 10.0 mi North 8.1 mph - N/A   Clear
4:53 PM 68.0 °F - 37.0 °F 32% 30.36 in 10.0 mi North 6.9 mph - N/A   Clear
5:53 PM 66.9 °F - 33.1 °F 28% 30.35 in 10.0 mi North 9.2 mph - N/A   Clear
6:53 PM 64.9 °F - 28.9 °F 26% 30.35 in 10.0 mi NE 4.6 mph - N/A   Clear
7:53 PM 63.0 °F - 30.9 °F 30% 30.35 in 10.0 mi ENE 6.9 mph - N/A   Clear
8:53 PM 59.0 °F - 30.9 °F 35% 30.35 in 10.0 mi ENE 3.5 mph - N/A   Clear
9:53 PM 50.0 °F - 36.0 °F 59% 30.37 in 10.0 mi Calm Calm - N/A   Clear
10:53 PM 48.0 °F - 36.0 °F 63% 30.37 in 10.0 mi Calm Calm - N/A   Clear
11:53 PM 45.0 °F - 37.0 °F 74% 30.37 in 10.0 mi Calm Calm - N/A   Clear